Weather in Kryazhevoye

Russia / Astrakhan Oblast     45°51′24″N   47°31′45″E
temp.,
°C
wind,
m/s
gust,
m/s
humid.,
%
clouds,
%
prec.,
mm/h
press.,
hPa
HPBL,
m
1 july, fri
fri101:00+21s225392 0.0 101315
04:00+21ssw355499 0.0 1012113
07:00+23ssw465496 0.0 1012328
10:00+27ssw4535100 0.0 10111236
13:00+29s7731100 0.0 10102248
16:00+27sse8839100 0.0 1009813
19:00+26s101241100 0.0 1008610
22:00+24ssw71347100 0.0 1008482
2 july, sat
sat201:00+22sw49505 0.0 1007213
04:00+20nne8105521 0.0 1006318
07:00+21n785112 0.0 1007609
10:00+22nnw1094571 0.0 10091378
13:00+22nw910330 0.0 10101461
16:00+24wnw911215 0.0 10092730
19:00+21nw1011335 0.0 10091306
22:00+18nw510410 0.0 1009457
3 july, sun
sun301:00+16w611460 0.0 1009439
04:00+15wsw814611 0.0 1007597
07:00+17wnw12166847 0.0 10071157
10:00+19wnw111561100 0.2 10071963
13:00+22nw10133971 0.3 10082378
16:00+26nnw111432100 0.3 10072623
19:00+24nw91542100 0.0 10082359
22:00+19wnw47605 0.0 1010151
4 july, mon
mon401:00+18nw4106012 0.0 1010255
04:00+18nw713643 0.0 1010511
07:00+20nw611614 0.0 1012617
10:00+25nw810415 0.0 10121615
13:00+29nnw783039 0.0 10112704
16:00+29nw5628100 0.0 10102670
19:00+27w5833100 0.0 1010385
22:00+23n475091 0.6 1012126
5 july, tue
tue501:00+21nnw34594 0.4 101252
04:00+21nnw486436 0.4 1013244
07:00+21n69505 0.0 1014555
10:00+24n78380 0.0 10151656
13:00+27n78330 0.0 10152147
16:00+28n78260 0.0 10142510
19:00+27n6725100 0.0 10152201
22:00+23n48370 0.0 1017159